Tracking 30970 objects as of 3-Jul-2025
HD Live streaming from Space Station
objects crossing your sky now

STARLINK-30171

Track STARLINK-30171 now!
10-day predictions
STARLINK-30171 is classified as:


NORAD ID: 57469
Int'l Code: 2023-107N
Perigee: 565.2 km
Apogee: 567.2 km
Inclination: 43.0 °
Period: 95.8 minutes
Semi major axis: 6937 km
RCS: Unknown
Launch date: July 28, 2023
Source: (TBD)
Launch site: AIR FORCE EASTERN TEST RANGE (AFETR)
Your satellite tracking list
Your tracking list is empty




NASA's NSSDC Master Catalog

Two Line Element Set (TLE):
1 57469U 23107N   25183.91788319 -.00000163  00000-0  29982-5 0  9995
2 57469  43.0028 255.9526 0001439 271.8201  88.2476 15.02537657107545
Source of the keplerian elements: AFSPC